Year,Month,Day,Hour,Minute,Value (Times are PST for temperature in C)
2015,05,04,00,00,10.40
2015,05,04,00,01,10.30
2015,05,04,00,02,10.30
2015,05,04,00,03,10.30
2015,05,04,00,04,10.30
2015,05,04,00,05,10.30
2015,05,04,00,06,10.30
2015,05,04,00,07,10.30
2015,05,04,00,08,10.40
2015,05,04,00,09,10.40
2015,05,04,00,10,10.40
2015,05,04,00,11,10.40
2015,05,04,00,12,10.40
2015,05,04,00,13,10.40
2015,05,04,00,14,10.40
2015,05,04,00,15,10.50
2015,05,04,00,16,10.50
2015,05,04,00,17,10.60
2015,05,04,00,18,10.60
2015,05,04,00,19,10.60
2015,05,04,00,20,10.60
2015,05,04,00,21,10.50
2015,05,04,00,22,10.50
2015,05,04,00,23,10.50
2015,05,04,00,24,10.50
2015,05,04,00,25,10.40
2015,05,04,00,26,10.40
2015,05,04,00,27,10.40
2015,05,04,00,28,10.40
2015,05,04,00,29,10.40
2015,05,04,00,30,10.40
2015,05,04,00,31,10.40
2015,05,04,00,32,10.30
2015,05,04,00,33,10.30
2015,05,04,00,34,10.30
2015,05,04,00,35,10.30
2015,05,04,00,36,10.20
2015,05,04,00,37,10.20
2015,05,04,00,38,10.20
2015,05,04,00,39,10.10
2015,05,04,00,40,10.10
2015,05,04,00,41,10.10
2015,05,04,00,42,10.00
2015,05,04,00,43,10.00
2015,05,04,00,44,10.00
2015,05,04,00,45,10.00
2015,05,04,00,46,10.00
2015,05,04,00,47,10.00
2015,05,04,00,48,10.00
2015,05,04,00,49,10.00
2015,05,04,00,50,9.90
2015,05,04,00,51,9.90
2015,05,04,00,52,9.90
2015,05,04,00,53,9.90
2015,05,04,00,54,9.80
2015,05,04,00,55,9.80
2015,05,04,00,56,9.80
2015,05,04,00,57,9.80
2015,05,04,00,58,9.70
2015,05,04,00,59,9.70
2015,05,04,01,00,9.60
2015,05,04,01,01,9.60
2015,05,04,01,02,9.50
2015,05,04,01,03,9.50
2015,05,04,01,04,9.40
2015,05,04,01,05,9.40
2015,05,04,01,06,9.50
2015,05,04,01,07,9.60
2015,05,04,01,08,9.70
2015,05,04,01,09,9.80
2015,05,04,01,10,9.80
2015,05,04,01,11,9.90
2015,05,04,01,12,9.90
2015,05,04,01,13,9.90
2015,05,04,01,14,9.90
2015,05,04,01,15,9.90
2015,05,04,01,16,9.90
2015,05,04,01,17,9.90
2015,05,04,01,18,9.80
2015,05,04,01,19,9.80
2015,05,04,01,20,9.80
2015,05,04,01,21,9.80
2015,05,04,01,22,9.70
2015,05,04,01,23,9.70
2015,05,04,01,24,9.70
2015,05,04,01,25,9.70
2015,05,04,01,26,9.70
2015,05,04,01,27,9.70
2015,05,04,01,28,9.70
2015,05,04,01,29,9.70
2015,05,04,01,30,9.70
2015,05,04,01,31,9.80
2015,05,04,01,32,9.80
2015,05,04,01,33,9.80
2015,05,04,01,34,9.80
2015,05,04,01,35,9.90
2015,05,04,01,36,9.90
2015,05,04,01,37,9.90
2015,05,04,01,38,9.90
2015,05,04,01,39,9.90
2015,05,04,01,40,9.90
2015,05,04,01,41,9.80
2015,05,04,01,42,9.80
2015,05,04,01,43,9.80
2015,05,04,01,44,9.70
2015,05,04,01,45,9.60
2015,05,04,01,46,9.50
2015,05,04,01,47,9.40
2015,05,04,01,48,9.30
2015,05,04,01,49,9.20
2015,05,04,01,50,9.20
2015,05,04,01,51,9.10
2015,05,04,01,52,9.10
2015,05,04,01,53,9.00
2015,05,04,01,54,8.90
2015,05,04,01,55,8.80
2015,05,04,01,56,8.70
2015,05,04,01,57,8.70
2015,05,04,01,58,8.60
2015,05,04,01,59,8.60
2015,05,04,02,00,8.50
2015,05,04,02,01,8.40
2015,05,04,02,02,8.40
2015,05,04,02,03,8.40
2015,05,04,02,04,8.30
2015,05,04,02,05,8.30
2015,05,04,02,06,8.30
2015,05,04,02,07,8.20
2015,05,04,02,08,8.20
2015,05,04,02,09,8.10
2015,05,04,02,10,8.00
2015,05,04,02,11,7.90
2015,05,04,02,12,7.80
2015,05,04,02,13,7.80
2015,05,04,02,14,7.70
2015,05,04,02,15,7.70
2015,05,04,02,16,7.80
2015,05,04,02,17,7.80
2015,05,04,02,18,7.80
2015,05,04,02,19,7.90
2015,05,04,02,20,7.90
2015,05,04,02,21,8.00
2015,05,04,02,22,8.00
2015,05,04,02,23,7.90
2015,05,04,02,24,7.90
2015,05,04,02,25,7.90
2015,05,04,02,26,7.80
2015,05,04,02,27,7.80
2015,05,04,02,28,7.80
2015,05,04,02,29,7.70
2015,05,04,02,30,7.70
2015,05,04,02,31,7.70
2015,05,04,02,32,7.60
2015,05,04,02,33,7.60
2015,05,04,02,34,7.50
2015,05,04,02,35,7.40
2015,05,04,02,36,7.30
2015,05,04,02,37,7.20
2015,05,04,02,38,7.10
2015,05,04,02,39,7.10
2015,05,04,02,40,7.00
2015,05,04,02,41,6.90
2015,05,04,02,42,6.90
2015,05,04,02,43,6.80
2015,05,04,02,44,6.80
2015,05,04,02,45,6.80
2015,05,04,02,46,6.80
2015,05,04,02,47,6.70
2015,05,04,02,48,6.70
2015,05,04,02,49,6.70
2015,05,04,02,50,6.80
2015,05,04,02,51,6.80
2015,05,04,02,52,6.80
2015,05,04,02,53,6.80
2015,05,04,02,54,6.80
2015,05,04,02,55,6.80
2015,05,04,02,56,6.80
2015,05,04,02,57,6.80
2015,05,04,02,58,6.80
2015,05,04,02,59,6.70
2015,05,04,03,00,6.70
2015,05,04,03,01,6.70
2015,05,04,03,02,6.70
2015,05,04,03,06,6.80
2015,05,04,03,07,6.80
2015,05,04,03,08,7.00
2015,05,04,03,09,7.10
2015,05,04,03,10,7.20
2015,05,04,03,11,7.30
2015,05,04,03,12,7.50
2015,05,04,03,13,7.60
2015,05,04,03,14,7.70
2015,05,04,03,15,7.80
2015,05,04,03,16,7.90
2015,05,04,03,17,8.00
2015,05,04,03,18,8.10
2015,05,04,03,19,8.20
2015,05,04,03,20,8.30
2015,05,04,03,21,8.30
2015,05,04,03,22,8.40
2015,05,04,03,23,8.50
2015,05,04,03,24,8.60
2015,05,04,03,25,8.70
2015,05,04,03,26,8.70
2015,05,04,03,27,8.80
2015,05,04,03,28,8.80
2015,05,04,03,29,8.80
2015,05,04,03,30,8.80
2015,05,04,03,31,8.80
2015,05,04,03,32,8.80
2015,05,04,03,33,8.70
2015,05,04,03,34,8.70
2015,05,04,03,35,8.70
2015,05,04,03,36,8.70
2015,05,04,03,37,8.70
2015,05,04,03,38,8.70
2015,05,04,03,39,8.70
2015,05,04,03,40,8.60
2015,05,04,03,41,8.60
2015,05,04,03,42,8.60
2015,05,04,03,43,8.70
2015,05,04,03,44,8.70
2015,05,04,03,45,8.70
2015,05,04,03,46,8.70
2015,05,04,03,47,8.70
2015,05,04,03,48,8.70
2015,05,04,03,49,8.70
2015,05,04,03,50,8.70
2015,05,04,03,51,8.70
2015,05,04,03,52,8.70
2015,05,04,03,53,8.70
2015,05,04,03,54,8.70
2015,05,04,03,55,8.70
2015,05,04,03,56,8.70
2015,05,04,03,57,8.70
2015,05,04,03,58,8.70
2015,05,04,03,59,8.70
2015,05,04,04,00,8.70
2015,05,04,04,01,8.60
2015,05,04,04,02,8.60
2015,05,04,04,03,8.60
2015,05,04,04,04,8.60
2015,05,04,04,05,8.60
2015,05,04,04,06,8.60
2015,05,04,04,07,8.60
2015,05,04,04,08,8.60
2015,05,04,04,09,8.60
2015,05,04,04,10,8.60
2015,05,04,04,11,8.60
2015,05,04,04,12,8.60
2015,05,04,04,13,8.70
2015,05,04,04,14,8.70
2015,05,04,04,15,8.80
2015,05,04,04,16,8.90
2015,05,04,04,17,9.10
2015,05,04,04,18,9.20
2015,05,04,04,19,9.30
2015,05,04,04,20,9.30
2015,05,04,04,21,9.40
2015,05,04,04,22,9.50
2015,05,04,04,23,9.60
2015,05,04,04,24,9.60
2015,05,04,04,25,9.70
2015,05,04,04,26,9.70
2015,05,04,04,27,9.70
2015,05,04,04,28,9.70
2015,05,04,04,29,9.70
2015,05,04,04,30,9.70
2015,05,04,04,31,9.70
2015,05,04,04,32,9.80
2015,05,04,04,33,9.80
2015,05,04,04,34,9.90
2015,05,04,04,35,10.00
2015,05,04,04,36,10.00
2015,05,04,04,37,10.10
2015,05,04,04,38,10.10
2015,05,04,04,39,10.20
2015,05,04,04,40,10.30
2015,05,04,04,41,10.30
2015,05,04,04,42,10.30
2015,05,04,04,43,10.30
2015,05,04,04,44,10.30
2015,05,04,04,45,10.20
2015,05,04,04,46,10.20
2015,05,04,04,47,10.20
2015,05,04,04,48,10.20
2015,05,04,04,49,10.30
2015,05,04,04,50,10.30
2015,05,04,04,51,10.30
2015,05,04,04,52,10.30
2015,05,04,04,53,10.30
2015,05,04,04,54,10.30
2015,05,04,04,55,10.30
2015,05,04,04,56,10.20
2015,05,04,04,57,10.20
2015,05,04,04,58,10.20
2015,05,04,04,59,10.20
2015,05,04,05,00,10.20
2015,05,04,05,01,10.20
2015,05,04,05,02,10.20
2015,05,04,05,03,10.10
2015,05,04,05,04,10.10
2015,05,04,05,05,10.10
2015,05,04,05,06,10.10
2015,05,04,05,07,10.00
2015,05,04,05,08,10.00
2015,05,04,05,09,9.90
2015,05,04,05,10,9.90
2015,05,04,05,11,9.90
2015,05,04,05,12,9.80
2015,05,04,05,13,9.80
2015,05,04,05,14,9.80
2015,05,04,05,15,9.80
2015,05,04,05,16,9.70
2015,05,04,05,17,9.70
2015,05,04,05,18,9.70
2015,05,04,05,19,9.70
2015,05,04,05,20,9.70
2015,05,04,05,21,9.70
2015,05,04,05,22,9.70
2015,05,04,05,23,9.60
2015,05,04,05,24,9.60
2015,05,04,05,25,9.60
2015,05,04,05,26,9.60
2015,05,04,05,27,9.60
2015,05,04,05,28,9.60
2015,05,04,05,29,9.60
2015,05,04,05,30,9.50
2015,05,04,05,31,9.50
2015,05,04,05,32,9.40
2015,05,04,05,33,9.40
2015,05,04,05,34,9.40
2015,05,04,05,35,9.30
2015,05,04,05,36,9.30
2015,05,04,05,37,9.30
2015,05,04,05,38,9.30
2015,05,04,05,39,9.20
2015,05,04,05,40,9.20
2015,05,04,05,41,9.20
2015,05,04,05,42,9.20
2015,05,04,05,43,9.20
2015,05,04,05,44,9.10
2015,05,04,05,45,9.10
2015,05,04,05,46,9.00
2015,05,04,05,47,9.00
2015,05,04,05,48,8.90
2015,05,04,05,49,8.90
2015,05,04,05,50,8.90
2015,05,04,05,51,8.80
2015,05,04,05,52,8.80
2015,05,04,05,53,8.70
2015,05,04,05,54,8.70
2015,05,04,05,55,8.60
2015,05,04,05,56,8.60
2015,05,04,05,57,8.50
2015,05,04,05,58,8.50
2015,05,04,05,59,8.40
2015,05,04,06,00,8.40
2015,05,04,06,01,8.40
2015,05,04,06,02,8.30
2015,05,04,06,03,8.30
2015,05,04,06,04,8.30
2015,05,04,06,05,8.30
2015,05,04,06,06,8.20
2015,05,04,06,07,8.20
2015,05,04,06,08,8.20
2015,05,04,06,09,8.20
2015,05,04,06,10,8.10
2015,05,04,06,11,8.10
2015,05,04,06,12,8.10
2015,05,04,06,13,8.10
2015,05,04,06,14,8.10
2015,05,04,06,15,8.00
2015,05,04,06,16,8.00
2015,05,04,06,17,8.00
2015,05,04,06,18,8.00
2015,05,04,06,19,8.00
2015,05,04,06,20,8.00
2015,05,04,06,21,8.00
2015,05,04,06,22,8.00
2015,05,04,06,23,8.00
2015,05,04,06,24,8.00
2015,05,04,06,25,7.90
2015,05,04,06,26,8.00
2015,05,04,06,27,7.90
2015,05,04,06,28,7.90
2015,05,04,06,29,7.90
2015,05,04,06,30,7.90
2015,05,04,06,31,7.90
2015,05,04,06,32,7.90
2015,05,04,06,33,7.90
2015,05,04,06,34,7.90
2015,05,04,06,35,7.90
2015,05,04,06,36,7.90
2015,05,04,06,37,7.90
2015,05,04,06,38,7.90
2015,05,04,06,39,7.90
2015,05,04,06,40,7.90
2015,05,04,06,41,7.90
2015,05,04,06,42,7.90
2015,05,04,06,43,7.90
2015,05,04,06,44,7.90
2015,05,04,06,45,7.90
2015,05,04,06,46,7.90
2015,05,04,06,47,7.90
2015,05,04,06,48,7.90
2015,05,04,06,49,7.90
2015,05,04,06,50,7.90
2015,05,04,06,51,7.90
2015,05,04,06,52,7.90
2015,05,04,06,53,7.90
2015,05,04,06,54,7.90
2015,05,04,06,55,7.90
2015,05,04,06,56,7.90
2015,05,04,06,57,7.90
2015,05,04,06,58,7.90
2015,05,04,06,59,7.90
2015,05,04,07,00,7.90
2015,05,04,07,01,7.90
2015,05,04,07,02,7.90
2015,05,04,07,03,7.90
2015,05,04,07,04,7.90
2015,05,04,07,05,7.90
2015,05,04,07,06,7.90
2015,05,04,07,07,7.90
2015,05,04,07,08,7.90
2015,05,04,07,09,7.90
2015,05,04,07,10,7.90
2015,05,04,07,11,7.90
2015,05,04,07,12,7.90
2015,05,04,07,13,7.90
2015,05,04,07,14,7.90
2015,05,04,07,15,7.90
2015,05,04,07,16,8.00
2015,05,04,07,17,8.00
2015,05,04,07,18,8.00
2015,05,04,07,19,8.00
2015,05,04,07,20,8.10
2015,05,04,07,21,8.10
2015,05,04,07,22,8.10
2015,05,04,07,23,8.10
2015,05,04,07,24,8.10
2015,05,04,07,25,8.10
2015,05,04,07,26,8.20
2015,05,04,07,27,8.20
2015,05,04,07,28,8.20
2015,05,04,07,29,8.20
2015,05,04,07,30,8.20
2015,05,04,07,31,8.30
2015,05,04,07,32,8.30
2015,05,04,07,33,8.30
2015,05,04,07,34,8.30
2015,05,04,07,35,8.30
2015,05,04,07,36,8.40
2015,05,04,07,37,8.40
2015,05,04,07,38,8.40
2015,05,04,07,39,8.40
2015,05,04,07,40,8.40
2015,05,04,07,41,8.50
2015,05,04,07,42,8.50
2015,05,04,07,43,8.50
2015,05,04,07,44,8.50
2015,05,04,07,45,8.60
2015,05,04,07,46,8.60
2015,05,04,07,47,8.60
2015,05,04,07,48,8.60
2015,05,04,07,49,8.60
2015,05,04,07,50,8.60
2015,05,04,07,51,8.60
2015,05,04,07,52,8.60
2015,05,04,07,53,8.50
2015,05,04,07,54,8.50
2015,05,04,07,55,8.50
2015,05,04,07,56,8.50
2015,05,04,07,57,8.50
2015,05,04,07,58,8.50
2015,05,04,07,59,8.50
2015,05,04,08,00,8.50
2015,05,04,08,01,8.60
2015,05,04,08,02,8.60
2015,05,04,08,03,8.60
2015,05,04,08,04,8.60
2015,05,04,08,05,8.60
2015,05,04,08,06,8.60
2015,05,04,08,07,8.60
2015,05,04,08,08,8.60
2015,05,04,08,09,8.60
2015,05,04,08,10,8.60
2015,05,04,08,11,8.70
2015,05,04,08,12,8.70
2015,05,04,08,13,8.70
2015,05,04,08,14,8.70
2015,05,04,08,15,8.70
2015,05,04,08,16,8.80
2015,05,04,08,17,8.80
2015,05,04,08,18,8.80
2015,05,04,08,19,8.80
2015,05,04,08,20,8.90
2015,05,04,08,21,8.90
2015,05,04,08,22,8.90
2015,05,04,08,23,8.90
2015,05,04,08,24,9.00
2015,05,04,08,25,9.00
2015,05,04,08,26,9.00
2015,05,04,08,27,9.10
2015,05,04,08,28,9.10
2015,05,04,08,29,9.10
2015,05,04,08,30,9.10
2015,05,04,08,31,9.20
2015,05,04,08,32,9.20
2015,05,04,08,33,9.20
2015,05,04,08,34,9.20
2015,05,04,08,35,9.20
2015,05,04,08,36,9.30
2015,05,04,08,37,9.30
2015,05,04,08,38,9.30
2015,05,04,08,39,9.30
2015,05,04,08,40,9.30
2015,05,04,08,41,9.30
2015,05,04,08,42,9.30
2015,05,04,08,43,9.30
2015,05,04,08,44,9.30
2015,05,04,08,45,9.40
2015,05,04,08,46,9.40
2015,05,04,08,47,9.40
2015,05,04,08,48,9.40
2015,05,04,08,49,9.40
2015,05,04,08,50,9.40
2015,05,04,08,51,9.40
2015,05,04,08,52,9.40
2015,05,04,08,53,9.50
2015,05,04,08,54,9.50
2015,05,04,08,55,9.40
2015,05,04,08,56,9.40
2015,05,04,08,57,9.50
2015,05,04,08,58,9.40
2015,05,04,08,59,9.50
2015,05,04,09,00,9.40
2015,05,04,09,01,9.40
2015,05,04,09,02,9.40
2015,05,04,09,03,9.40
2015,05,04,09,04,9.40
2015,05,04,09,05,9.40
2015,05,04,09,06,9.50
2015,05,04,09,07,9.50
2015,05,04,09,08,9.60
2015,05,04,09,09,9.60
2015,05,04,09,10,9.60
2015,05,04,09,11,9.60
2015,05,04,09,12,9.60
2015,05,04,09,13,9.60
2015,05,04,09,14,9.60
2015,05,04,09,15,9.70
2015,05,04,09,16,9.70
2015,05,04,09,17,9.70
2015,05,04,09,18,9.70
2015,05,04,09,19,9.70
2015,05,04,09,20,9.80
2015,05,04,09,21,9.80
2015,05,04,09,22,9.90
2015,05,04,09,23,9.90
2015,05,04,09,24,10.00
2015,05,04,09,25,10.00
2015,05,04,09,26,10.10
2015,05,04,09,27,10.10
2015,05,04,09,28,10.20
2015,05,04,09,29,10.20
2015,05,04,09,30,10.30
2015,05,04,09,31,10.30
2015,05,04,09,32,10.30
2015,05,04,09,33,10.40
2015,05,04,09,34,10.40
2015,05,04,09,35,10.50
2015,05,04,09,36,10.50
2015,05,04,09,37,10.60
2015,05,04,09,38,10.60
2015,05,04,09,39,10.50
2015,05,04,09,40,10.50
2015,05,04,09,41,10.50
2015,05,04,09,42,10.50
2015,05,04,09,43,10.60
2015,05,04,09,44,10.60
2015,05,04,09,45,10.60
2015,05,04,09,46,10.70
2015,05,04,09,47,10.70
2015,05,04,09,48,10.70
2015,05,04,09,49,10.80
2015,05,04,09,50,10.80
2015,05,04,09,51,10.80
2015,05,04,09,52,10.90
2015,05,04,09,53,10.90
2015,05,04,09,54,11.00
2015,05,04,09,55,11.00
2015,05,04,09,56,11.10
2015,05,04,09,57,11.10
2015,05,04,09,58,11.20
2015,05,04,09,59,11.20
2015,05,04,10,00,11.30
2015,05,04,10,01,11.40
2015,05,04,10,02,11.40
2015,05,04,10,03,11.50
2015,05,04,10,04,11.60
2015,05,04,10,05,11.60
2015,05,04,10,06,11.70
2015,05,04,10,07,11.70
2015,05,04,10,08,11.70
2015,05,04,10,09,11.70
2015,05,04,10,10,11.80
2015,05,04,10,11,11.80
2015,05,04,10,12,11.90
2015,05,04,10,13,12.00
2015,05,04,10,14,12.10
2015,05,04,10,15,12.20
2015,05,04,10,16,12.20
2015,05,04,10,17,12.30
2015,05,04,10,18,12.40
2015,05,04,10,19,12.50
2015,05,04,10,20,12.60
2015,05,04,10,21,12.60
2015,05,04,10,22,12.60
2015,05,04,10,23,12.60
2015,05,04,10,24,12.50
2015,05,04,10,25,12.50
2015,05,04,10,26,12.40
2015,05,04,10,27,12.30
2015,05,04,10,28,12.30
2015,05,04,10,29,12.20
2015,05,04,10,30,12.20
2015,05,04,10,31,12.10
2015,05,04,10,32,12.00
2015,05,04,10,33,12.00
2015,05,04,10,34,11.90
2015,05,04,10,35,12.00
2015,05,04,10,36,12.00
2015,05,04,10,37,12.10
2015,05,04,10,38,12.10
2015,05,04,10,39,12.10
2015,05,04,10,40,12.10
2015,05,04,10,41,12.10
2015,05,04,10,42,12.10
2015,05,04,10,43,12.10
2015,05,04,10,44,12.10
2015,05,04,10,45,12.10
2015,05,04,10,46,12.10
2015,05,04,10,47,12.10
2015,05,04,10,48,12.00
2015,05,04,10,49,12.00
2015,05,04,10,50,11.90
2015,05,04,10,51,11.90
2015,05,04,10,52,11.90
2015,05,04,10,53,12.00
2015,05,04,10,54,12.10
2015,05,04,10,55,12.20
2015,05,04,10,56,12.20
2015,05,04,10,57,12.30
2015,05,04,10,58,12.30
2015,05,04,10,59,12.40
2015,05,04,11,00,12.50
2015,05,04,11,01,12.60
2015,05,04,11,02,12.60
2015,05,04,11,03,12.60
2015,05,04,11,04,12.70
2015,05,04,11,05,12.70
2015,05,04,11,06,12.70
2015,05,04,11,07,12.70
2015,05,04,11,08,12.70
2015,05,04,11,09,12.80
2015,05,04,11,10,12.80
2015,05,04,11,11,12.80
2015,05,04,11,12,12.90
2015,05,04,11,13,12.90
2015,05,04,11,14,12.90
2015,05,04,11,15,12.90
2015,05,04,11,16,12.90
2015,05,04,11,17,13.00
2015,05,04,11,18,13.10
2015,05,04,11,19,13.20
2015,05,04,11,20,13.30
2015,05,04,11,21,13.40
2015,05,04,11,22,13.50
2015,05,04,11,23,13.60
2015,05,04,11,24,13.70
2015,05,04,11,25,13.80
2015,05,04,11,26,13.80
2015,05,04,11,27,13.70
2015,05,04,11,28,13.70
2015,05,04,11,29,13.80
2015,05,04,11,30,13.80
2015,05,04,11,31,13.80
2015,05,04,11,32,13.80
2015,05,04,11,33,13.80
2015,05,04,11,34,13.80
2015,05,04,11,35,13.70
2015,05,04,11,36,13.60
2015,05,04,11,37,13.50
2015,05,04,11,38,13.40
2015,05,04,11,39,13.40
2015,05,04,11,40,13.30
2015,05,04,11,41,13.30
2015,05,04,11,42,13.30
2015,05,04,11,43,13.20
2015,05,04,11,44,13.20
2015,05,04,11,45,13.20
2015,05,04,11,46,13.20
2015,05,04,11,47,13.10
2015,05,04,11,48,13.00
2015,05,04,11,49,12.90
2015,05,04,11,50,13.00
2015,05,04,11,51,13.00
2015,05,04,11,52,13.10
2015,05,04,11,53,13.30
2015,05,04,11,54,13.40
2015,05,04,11,55,13.60
2015,05,04,11,56,13.70
2015,05,04,11,57,13.70
2015,05,04,11,58,13.70
2015,05,04,11,59,13.70
2015,05,04,12,00,13.70
2015,05,04,12,01,13.70
2015,05,04,12,02,13.70
2015,05,04,12,03,13.70
2015,05,04,12,04,13.70
2015,05,04,12,05,13.80
2015,05,04,12,06,13.80
2015,05,04,12,07,13.90
2015,05,04,12,08,14.00
2015,05,04,12,09,14.10
2015,05,04,12,10,14.20
2015,05,04,12,11,14.30
2015,05,04,12,12,14.40
2015,05,04,12,13,14.50
2015,05,04,12,14,14.60
2015,05,04,12,15,14.60
2015,05,04,12,16,14.60
2015,05,04,12,17,14.60
2015,05,04,12,18,14.50
2015,05,04,12,19,14.50
2015,05,04,12,20,14.50
2015,05,04,12,21,14.60
2015,05,04,12,22,14.80
2015,05,04,12,23,15.00
2015,05,04,12,24,15.00
2015,05,04,12,25,15.00
2015,05,04,12,26,15.00
2015,05,04,12,27,15.00
2015,05,04,12,28,15.00
2015,05,04,12,29,15.10
2015,05,04,12,30,15.20
2015,05,04,12,31,15.10
2015,05,04,12,32,15.00
2015,05,04,12,33,15.00
2015,05,04,12,34,15.00
2015,05,04,12,35,14.80
2015,05,04,12,36,14.70
2015,05,04,12,37,14.60
2015,05,04,12,38,14.60
2015,05,04,12,39,14.60
2015,05,04,12,40,14.60
2015,05,04,12,41,14.60
2015,05,04,12,42,14.80
2015,05,04,12,43,14.90
2015,05,04,12,44,15.00
2015,05,04,12,45,15.10
2015,05,04,12,46,15.20
2015,05,04,12,47,15.30
2015,05,04,12,48,15.40
2015,05,04,12,49,15.60
2015,05,04,12,50,15.70
2015,05,04,12,51,15.80
2015,05,04,12,52,15.90
2015,05,04,12,53,16.10
2015,05,04,12,54,16.20
2015,05,04,12,55,16.20
2015,05,04,12,56,16.20
2015,05,04,12,57,16.10
2015,05,04,12,58,16.10
2015,05,04,12,59,16.10
2015,05,04,13,00,16.10
2015,05,04,13,01,16.20
2015,05,04,13,02,16.30
2015,05,04,13,03,16.30
2015,05,04,13,04,16.40
2015,05,04,13,05,16.40
2015,05,04,13,06,16.50
2015,05,04,13,07,16.60
2015,05,04,13,08,16.60
2015,05,04,13,09,16.70
2015,05,04,13,10,16.60
2015,05,04,13,11,16.50
2015,05,04,13,12,16.50
2015,05,04,13,13,16.40
2015,05,04,13,14,16.30
2015,05,04,13,15,16.20
2015,05,04,13,16,16.00
2015,05,04,13,17,15.90
2015,05,04,13,18,15.80
2015,05,04,13,19,15.70
2015,05,04,13,20,15.60
2015,05,04,13,21,15.60
2015,05,04,13,22,15.50
2015,05,04,13,23,15.40
2015,05,04,13,24,15.30
2015,05,04,13,25,15.30
2015,05,04,13,26,15.20
2015,05,04,13,27,15.10
2015,05,04,13,28,15.00
2015,05,04,13,29,14.90
2015,05,04,13,30,14.80
2015,05,04,13,31,14.70
2015,05,04,13,32,14.70
2015,05,04,13,33,14.60
2015,05,04,13,34,14.60
2015,05,04,13,35,14.70
2015,05,04,13,36,14.60
2015,05,04,13,37,14.60
2015,05,04,13,38,14.60
2015,05,04,13,39,14.60
2015,05,04,13,40,14.50
2015,05,04,13,41,14.60
2015,05,04,13,42,14.50
2015,05,04,13,43,14.50
2015,05,04,13,44,14.40
2015,05,04,13,45,14.40
2015,05,04,13,46,14.40
2015,05,04,13,47,14.40
2015,05,04,13,48,14.50
2015,05,04,13,49,14.50
2015,05,04,13,50,14.60
2015,05,04,13,51,14.60
2015,05,04,13,52,14.60
2015,05,04,13,53,14.60
2015,05,04,13,54,14.70
2015,05,04,13,55,14.70
2015,05,04,13,56,14.80
2015,05,04,13,57,14.80
2015,05,04,13,58,15.00
2015,05,04,13,59,15.00
2015,05,04,14,00,15.00
2015,05,04,14,01,15.10
2015,05,04,14,02,15.30
2015,05,04,14,03,15.40
2015,05,04,14,04,15.40
2015,05,04,14,05,15.40
2015,05,04,14,06,15.40
2015,05,04,14,07,15.30
2015,05,04,14,08,15.10
2015,05,04,14,09,15.00
2015,05,04,14,10,15.00
2015,05,04,14,11,15.00
2015,05,04,14,12,15.00
2015,05,04,14,13,15.00
2015,05,04,14,14,14.80
2015,05,04,14,15,14.80
2015,05,04,14,16,14.70
2015,05,04,14,17,14.60
2015,05,04,14,18,14.60
2015,05,04,14,19,14.50
2015,05,04,14,20,14.50
2015,05,04,14,21,14.50
2015,05,04,14,22,14.50
2015,05,04,14,23,14.50
2015,05,04,14,24,14.50
2015,05,04,14,25,14.50
2015,05,04,14,26,14.50
2015,05,04,14,27,14.60
2015,05,04,14,28,14.70
2015,05,04,14,29,14.70
2015,05,04,14,30,14.70
2015,05,04,14,31,14.80
2015,05,04,14,32,15.00
2015,05,04,14,33,15.00
2015,05,04,14,34,15.00
2015,05,04,14,35,15.20
2015,05,04,14,36,15.30
2015,05,04,14,37,15.40
2015,05,04,14,38,15.60
2015,05,04,14,39,15.60
2015,05,04,14,40,15.60
2015,05,04,14,41,15.60
2015,05,04,14,42,15.60
2015,05,04,14,43,15.50
2015,05,04,14,44,15.40
2015,05,04,14,45,15.30
2015,05,04,14,46,15.20
2015,05,04,14,47,15.10
2015,05,04,14,48,15.10
2015,05,04,14,49,15.10
2015,05,04,14,50,15.10
2015,05,04,14,51,15.20
2015,05,04,14,52,15.20
2015,05,04,14,53,15.20
2015,05,04,14,54,15.30
2015,05,04,14,55,15.20
2015,05,04,14,56,15.20
2015,05,04,14,57,15.20
2015,05,04,14,58,15.20
2015,05,04,14,59,15.20
2015,05,04,15,00,15.10
2015,05,04,15,01,15.00
2015,05,04,15,02,15.00
2015,05,04,15,03,14.90
2015,05,04,15,04,14.80
2015,05,04,15,05,14.70
2015,05,04,15,06,14.70
2015,05,04,15,07,14.70
2015,05,04,15,08,14.70
2015,05,04,15,09,14.70
2015,05,04,15,10,14.70
2015,05,04,15,11,14.70
2015,05,04,15,12,14.70
2015,05,04,15,13,14.80
2015,05,04,15,14,14.80
2015,05,04,15,15,14.80
2015,05,04,15,16,14.80
2015,05,04,15,17,14.80
2015,05,04,15,18,14.80
2015,05,04,15,19,14.90
2015,05,04,15,20,15.00
2015,05,04,15,21,15.00
2015,05,04,15,22,15.00
2015,05,04,15,23,15.00
2015,05,04,15,24,14.90
2015,05,04,15,25,14.80
2015,05,04,15,26,14.60
2015,05,04,15,27,14.60
2015,05,04,15,28,14.60
2015,05,04,15,29,14.60
2015,05,04,15,30,14.50
2015,05,04,15,31,14.50
2015,05,04,15,32,14.50
2015,05,04,15,33,14.60
2015,05,04,15,34,14.70
2015,05,04,15,35,14.90
2015,05,04,15,36,15.00
2015,05,04,15,37,15.00
2015,05,04,15,38,15.00
2015,05,04,15,39,15.00
2015,05,04,15,40,14.90
2015,05,04,15,41,14.80
2015,05,04,15,42,14.70
2015,05,04,15,43,14.60
2015,05,04,15,44,14.50
2015,05,04,15,45,14.40
2015,05,04,15,46,14.30
2015,05,04,15,47,14.30
2015,05,04,15,48,14.20
2015,05,04,15,49,14.10
2015,05,04,15,50,14.00
2015,05,04,15,51,13.90
2015,05,04,15,52,13.90
2015,05,04,15,53,13.80
2015,05,04,15,54,13.80
2015,05,04,15,55,13.80
2015,05,04,15,56,13.70
2015,05,04,15,57,13.60
2015,05,04,15,58,13.50
2015,05,04,15,59,13.50
2015,05,04,16,00,13.40
2015,05,04,16,01,13.40
2015,05,04,16,02,13.40
2015,05,04,16,03,13.40
2015,05,04,16,04,13.30
2015,05,04,16,05,13.20
2015,05,04,16,06,13.20
2015,05,04,16,07,13.10
2015,05,04,16,08,13.00
2015,05,04,16,09,12.80
2015,05,04,16,10,12.60
2015,05,04,16,11,12.30
2015,05,04,16,12,12.10
2015,05,04,16,13,11.80
2015,05,04,16,14,11.60
2015,05,04,16,15,11.40
2015,05,04,16,16,11.20
2015,05,04,16,17,11.00
2015,05,04,16,18,10.90
2015,05,04,16,19,10.80
2015,05,04,16,20,10.70
2015,05,04,16,21,10.60
2015,05,04,16,22,10.50
2015,05,04,16,23,10.40
2015,05,04,16,24,10.40
2015,05,04,16,25,10.30
2015,05,04,16,26,10.30
2015,05,04,16,27,10.30
2015,05,04,16,28,10.30
2015,05,04,16,29,10.30
2015,05,04,16,30,10.30
2015,05,04,16,31,10.30
2015,05,04,16,32,10.30
2015,05,04,16,33,10.20
2015,05,04,16,34,10.20
2015,05,04,16,35,10.20
2015,05,04,16,36,10.20
2015,05,04,16,37,10.20
2015,05,04,16,38,10.20
2015,05,04,16,39,10.20
2015,05,04,16,40,10.10
2015,05,04,16,41,10.20
2015,05,04,16,42,10.20
2015,05,04,16,43,10.10
2015,05,04,16,44,10.10
2015,05,04,16,45,10.10
2015,05,04,16,46,10.20
2015,05,04,16,47,10.20
2015,05,04,16,48,10.20
2015,05,04,16,49,10.30
2015,05,04,16,50,10.30
2015,05,04,16,51,10.30
2015,05,04,16,52,10.40
2015,05,04,16,53,10.50
2015,05,04,16,54,10.60
2015,05,04,16,55,10.60
2015,05,04,16,56,10.70
2015,05,04,16,57,10.80
2015,05,04,16,58,10.90
2015,05,04,16,59,11.00
2015,05,04,17,00,11.10
2015,05,04,17,01,11.20
2015,05,04,17,02,11.20
2015,05,04,17,03,11.20
2015,05,04,17,04,11.30
2015,05,04,17,05,11.30
2015,05,04,17,06,11.30
2015,05,04,17,07,11.40
2015,05,04,17,08,11.40
2015,05,04,17,09,11.50
2015,05,04,17,10,11.70
2015,05,04,17,11,11.80
2015,05,04,17,12,11.90
2015,05,04,17,13,12.10
2015,05,04,17,14,12.20
2015,05,04,17,15,12.30
2015,05,04,17,16,12.30
2015,05,04,17,17,12.40
2015,05,04,17,18,12.60
2015,05,04,17,19,12.80
2015,05,04,17,20,12.90
2015,05,04,17,21,13.00
2015,05,04,17,22,13.10
2015,05,04,17,23,13.10
2015,05,04,17,24,13.10
2015,05,04,17,25,13.10
2015,05,04,17,26,13.20
2015,05,04,17,27,13.20
2015,05,04,17,28,13.20
2015,05,04,17,29,13.20
2015,05,04,17,30,13.20
2015,05,04,17,31,13.10
2015,05,04,17,32,13.10
2015,05,04,17,33,13.00
2015,05,04,17,34,13.00
2015,05,04,17,35,12.90
2015,05,04,17,36,12.90
2015,05,04,17,37,12.90
2015,05,04,17,38,12.90
2015,05,04,17,39,12.90
2015,05,04,17,40,12.90
2015,05,04,17,41,12.80
2015,05,04,17,42,12.80
2015,05,04,17,43,12.70